Weather History for Poplar Bluff, MO

Change the Weather History Date:

Tuesday, December 25, 2012

  Actual Average Record
Temperature  
Mean Temperature 32 °F -  
Max Temperature 37 °F 42 °F 70 °F (1921)
Min Temperature 28 °F 24 °F -2 °F (2004)
Degree Days  
Heating Degree Days 32    
Moisture  
Dew Point 24 °F    
Average Humidity 72    
Maximum Humidity 85    
Minimum Humidity 62    
Precipitation  
Precipitation 0.01 in - - ()
Sea Level Pressure  
Sea Level Pressure 30.00 in    
Wind  
Wind Speed 16 mph (NNE)    
Max Wind Speed 34 mph    
Max Gust Speed 45 mph    
Visibility 7 miles    
Events Snow    
Averages and records for this station are not official NWS values.
T = Trace of Precipitation, MM = Missing Value Source: NWS Daily Summary

Daily Weather History Graph

Daily Weather History Graph

Search for Another Location

Airport:

Trip Planner

Search our weather history database for the weather conditions in past years. The results will help you decide how hot, cold, wet, or windy it might be!

Date:

Astronomy

Dec. 25, 2012 Rise Set
Actual Time 7:12 AM CST 4:51 PM CST
Civil Twilight 6:43 AM CST 5:20 PM CST
Nautical Twilight 6:10 AM CST 5:52 PM CST
Astronomical Twilight 5:39 AM CST 6:24 PM CST
Moon 2:58 PM CST (12/25) 4:45 AM CST (12/25)
Length of Visible Light 10h 36m
Length of Day
9h 39m
Waxing Gibbous, 94% of the Moon is Illuminated
Dec 25
Waxing Gibbous
Dec 28
Full
Jan 4
Last Quarter
Jan 11
New
Jan 18
First Quarter

Hourly Weather History & Observations

Time (CST) Temp. Windchill Dew Point Humidity Pressure Visibility Wind Dir Wind Speed Gust Speed Precip Events Conditions
12:53 AM 30.0 °F 19.5 °F 23.0 °F 75% 30.08 in 6.0 mi NNE 13.8 mph - N/A   Haze
1:42 AM 28.4 °F 19.1 °F 21.2 °F 74% 30.07 in 6.0 mi NNE 10.4 mph - N/A   Haze
1:53 AM 28.9 °F 20.4 °F 21.9 °F 75% 30.09 in 6.0 mi NNE 9.2 mph - N/A   Haze
2:02 AM 28.4 °F 18.5 °F 21.2 °F 74% 30.09 in 6.0 mi NNE 11.5 mph - N/A   Haze
2:53 AM 28.0 °F 18.1 °F 21.0 °F 75% 30.11 in 7.0 mi NNE 11.5 mph - N/A   Overcast
3:53 AM 28.9 °F 19.2 °F 21.9 °F 75% 30.12 in 6.0 mi NE 11.5 mph 18.4 mph N/A   Haze
4:53 AM 28.9 °F 19.2 °F 21.9 °F 75% 30.10 in 7.0 mi NNE 11.5 mph - N/A   Overcast
5:53 AM 28.9 °F 18.6 °F 21.9 °F 75% 30.08 in 7.0 mi NE 12.7 mph 20.7 mph N/A   Overcast
6:53 AM 28.9 °F 18.6 °F 21.9 °F 75% 30.12 in 7.0 mi NE 12.7 mph 23.0 mph N/A   Overcast
7:53 AM 28.9 °F 18.6 °F 21.9 °F 75% 30.12 in 6.0 mi NNE 12.7 mph 24.2 mph N/A   Haze
8:53 AM 28.9 °F 17.3 °F 21.9 °F 75% 30.16 in 6.0 mi North 16.1 mph 21.9 mph N/A   Haze
9:12 AM 30.2 °F 20.2 °F 21.2 °F 69% 30.15 in 6.0 mi North 12.7 mph - N/A   Haze
9:53 AM 30.9 °F 19.1 °F 21.9 °F 69% 30.14 in 7.0 mi NNE 18.4 mph 23.0 mph N/A   Clear
10:53 AM 33.1 °F 21.5 °F 24.1 °F 70% 30.11 in 7.0 mi NE 19.6 mph 27.6 mph N/A   Clear
11:51 AM 33.8 °F 23.5 °F 24.8 °F 70% 30.05 in 7.0 mi NE 16.1 mph 26.5 mph N/A   Mostly Cloudy
11:53 AM 34.0 °F 22.7 °F 25.0 °F 70% 30.07 in 7.0 mi NE 19.6 mph 26.5 mph N/A   Mostly Cloudy
12:14 PM 35.6 °F 25.9 °F 24.8 °F 65% 30.04 in 8.0 mi NE 16.1 mph 25.3 mph N/A   Scattered Clouds
12:39 PM 35.6 °F 25.9 °F 26.6 °F 70% 30.00 in 8.0 mi NE 16.1 mph 25.3 mph N/A   Mostly Cloudy
12:53 PM 36.0 °F 24.4 °F 26.1 °F 67% 29.99 in 8.0 mi NE 23.0 mph 28.8 mph N/A   Overcast
2:53 PM 37.0 °F 27.0 °F 26.1 °F 65% 29.98 in 9.0 mi NNE 18.4 mph 31.1 mph N/A   Overcast
3:53 PM 37.0 °F 26.4 °F 26.1 °F 65% 30.01 in 9.0 mi NNE 20.7 mph 27.6 mph N/A   Overcast
4:09 PM 37.4 °F 28.5 °F 26.6 °F 65% 29.98 in 10.0 mi NNE 15.0 mph 23.0 mph N/A   Overcast
4:53 PM 37.0 °F 25.9 °F 25.0 °F 62% 29.94 in 10.0 mi NNE 23.0 mph 31.1 mph N/A   Overcast
5:53 PM 36.0 °F 25.6 °F 26.1 °F 67% 29.92 in 10.0 mi NNE 18.4 mph 29.9 mph 0.00 in   Overcast
6:53 PM 35.1 °F 23.3 °F 26.1 °F 70% 29.88 in 10.0 mi NNE 23.0 mph 33.4 mph 0.00 in   Overcast
7:37 PM 35.6 °F 24.0 °F 26.6 °F 70% 29.84 in 10.0 mi NNE 23.0 mph 31.1 mph 0.00 in   Overcast
7:53 PM 35.1 °F 23.3 °F 27.0 °F 72% 29.86 in 9.0 mi NNE 23.0 mph 31.1 mph 0.00 in   Overcast
8:53 PM 35.1 °F 22.7 °F 27.0 °F 72% 29.82 in 10.0 mi NNE 25.3 mph 40.3 mph 0.00 in   Overcast
9:53 PM 35.1 °F 21.0 °F 27.0 °F 72% 29.78 in 9.0 mi North 34.5 mph 44.9 mph 0.00 in   Overcast
10:32 PM 35.6 °F 23.4 °F 28.4 °F 75% 29.76 in 2.5 mi North 25.3 mph 44.9 mph 0.00 in Snow Light Snow
10:53 PM 34.0 °F 21.5 °F 28.0 °F 79% 29.77 in 1.5 mi North 24.2 mph 40.3 mph 0.00 in Snow Light Snow
11:53 PM 33.1 °F 19.8 °F 28.9 °F 85% 29.76 in 1.0 mi North 26.5 mph 35.7 mph 0.01 in Snow Light Snow